Atlantic, Iowa
Current Conditions -  °F | °C
As of 9:15 AM on Sunday 21 Dec 2014 (Local Time) from KAIO Reporting Station
Haze Haze  
Wind Chill: 29°   Ceiling: 700
Heat Index: 37°   Visibility: 5mi
Dew Point: 37°   Wind: 15mph
Humidity: 100%   Direction: 180°S
Pressure: 29.89"   Gusts: NA
Location:  41.4°N, 95.01°W
Report Text: KAIO 211515Z AUTO 18013KT 5SM BR OVC007 03/03 A2989 RMK AO2
Loading
Personal Weather Stations






























Interactive Weather Map New forecast layout! Learn more

10-Day Weather Forecast

Advertisements
Track Severe Weather on mobile